カタログに戻る

ORBCOMM FM 13

運用中通信LEO
NORAD 25420·PAYLOAD·🇺🇸 United States

打ち上げ Aug 2, 1998 から Cape Canaveral Space Force Station

Loading…

次のパス (今後24時間)

TLE

最新Source: Space-Track

元期: Sep 13, 2026, 20:48 UTC

1 25420U 98046H   26256.86728218  .00000605  00000-0  24104-3 0  9998
2 25420  44.9962 192.0815 0005882  17.4217 342.6832 14.38753351468556

AllMySatでORBCOMM FM 13をリアルタイム追跡

Download on the App Store